To NAV CANADA Home Page Login to a new session Search on AWWS site Feedback and Comments Disclaimer Vers la page française équivalente Tips FAQ What's new on the site To the Forecasts and Observations / NOTAM section To "File a Flight Plan" website Publications and other links Update of the User's profile FIC Telephone Numbers My Weather Data Folder Route Weather Data Regional Weather Data Local Weather Data To the Forecasts and Observations / NOTAM section
Request Generated 06/26/2017 at 03:35:34 UTC . Weather information available at that time is displayed.

METAR/TAF

NAIN/NL    

LWIS CYDP 260300Z AUTO 28021G30KT 10/03 A2926=
LWIS CYDP 260200Z AUTO 26016G31KT 10/05 A2926=
LWIS CYDP 260100Z AUTO 25015G22KT 11/04 A2924=

*** REMARK        : Forecast period has ended; this was the last TAF issued
*** REMARQUE : La période de prévision est échue; ceci était le dernier TAF qui a été émis
TAF CYDP 251938Z 2520/2523 29025G35KT P6SM SCT025 BKN100 TEMPO
2520/2523 BKN020
RMK NXT FCST WILL BE ISSUED AT 260945Z=
Your time UTC time
Weather data provided by Environment Canada and NAV CANADA